Mecheria, Algeria

12:10 PM CET on December 08, 2019 (GMT +0100)
Mecheria

Weather History for DAAY - June, 2019

Change the Weather History Date:

Sunday, June 2, 2019

  Actual Average (WUND) Record (WUND)
Temperature  
Mean Temperature 74 °F -  
Max Temperature 88 °F - - (-1)
Min Temperature 59 °F - - (-1)
Cooling Degree Days 8    
Growing Degree Days 24 (Base 50)    
Moisture  
Dew Point 51 °F    
Average Humidity 42    
Maximum Humidity 68    
Minimum Humidity 18    
Precipitation  
Precipitation 0.00 in - - ()
Sea Level Pressure  
Sea Level Pressure 30.20 in    
Wind  
Wind Speed 8 mph ()    
Max Wind Speed 23 mph    
Max Gust Speed -    
Visibility 4.4 miles    
Events Thunderstorm    
Averages and records for this station are not official NWS values.
T = Trace of Precipitation, MM = Missing Value Source: Averaged Metar Reports

Daily Weather History Graph

Daily Weather History Graph

Search for Another Location

Airport or City:

Astronomy

Jun. 02, 2019 Rise Set
Actual Time 5:51 AM CET 8:06 PM CET
Civil Twilight 5:23 AM CET 8:34 PM CET
Nautical Twilight 4:48 AM CET 9:09 PM CET
Astronomical Twilight 4:10 AM CET 9:47 PM CET
Moon 5:16 AM CET (6/2) 7:13 PM CET (6/2)
Length of Visible Light 15h 11m
Length of Day
14h 14m
Waning Crescent, 1% of the Moon is Illuminated
Jun 2
Waning Crescent
Jun 3
New
Jun 10
First Quarter
Jun 17
Full
Jun 25
Last Quarter

Hourly Weather History & Observations

Time (CET) Temp. Heat Index Dew Point Humidity Pressure Visibility Wind Dir Wind Speed Gust Speed Precip Events Conditions
12:00 AM 69.8 °F - 51.8 °F 53% 30.24 in 6.2 mi WSW 9.2 mph - N/A   Partly Cloudy
1:00 AM 69.8 °F - 53.6 °F 56% 30.24 in 6.2 mi SW 9.2 mph - N/A   Partly Cloudy
2:00 AM 66.2 °F - 50.0 °F 56% 30.21 in - NNE 9.2 mph - N/A   Clear
3:00 AM 62.6 °F - 46.4 °F 55% 30.21 in - Calm Calm - N/A   Clear
4:00 AM 62.6 °F - 46.4 °F 55% 30.21 in - Calm Calm - N/A   Clear
5:00 AM 60.8 °F - 48.2 °F 63% 30.21 in - Calm Calm - N/A   Clear
6:00 AM 60.8 °F - 50.0 °F 68% 30.21 in - Calm Calm - N/A   Clear
7:00 AM 67 °F - 54 °F 53%  in 6 mi SSW 9.2 mph - -  
7:00 AM 66.2 °F - 53.6 °F 64% 30.21 in - SSW 9.2 mph - N/A   Clear
8:00 AM 71.6 °F - 53.6 °F 53% 30.24 in 4.3 mi SSW 11.5 mph - N/A   Unknown
9:00 AM 75.2 °F - 53.6 °F 47% 30.24 in 4.3 mi SSW 13.8 mph - N/A   Unknown
10:00 AM 78 °F - 55 °F 34%  in 4 mi SSW 13.8 mph - -  
10:00 AM 77.0 °F - 55.4 °F 47% 30.24 in 4.3 mi SSW 13.8 mph - N/A   Unknown
12:00 PM 84.2 °F 83.0 °F 55.4 °F 37% 30.24 in 4.3 mi South 13.8 mph - N/A   Unknown
1:00 PM 87 °F - 55 °F 24%  in 4 mi SSE 11.5 mph - -  
1:00 PM 87.8 °F 86.1 °F 55.4 °F 33% 30.21 in 4.3 mi SSE 11.5 mph - N/A   Unknown
3:00 PM 87.8 °F - 51.8 °F 29% 30.18 in 4.3 mi SSW 11.5 mph - N/A   Partly Cloudy
3:45 PM 87.8 °F - 50.0 °F 27% 30.15 in 4.3 mi South 11.5 mph - N/A   Scattered Clouds
4:00 PM 87 °F - 50 °F 18%  in 4 mi South 11.5 mph - -   Partly Cloudy
4:00 PM 87.8 °F - 50.0 °F 27% 30.15 in 4.3 mi South 11.5 mph - N/A   Scattered Clouds
4:30 PM 87.8 °F - 50.0 °F 27% 30.15 in 4.3 mi SSW 9.2 mph - N/A Thunderstorm Light Thunderstorm
5:00 PM 86.0 °F - 46.4 °F 25% 30.15 in 3.7 mi WNW 23.0 mph - N/A Thunderstorm Light Thunderstorm
6:00 PM 82.4 °F - 46.4 °F 28% 30.15 in 3.7 mi South 11.5 mph - N/A Thunderstorm Light Thunderstorm
7:00 PM 80 °F - 47 °F 21%  in 4 mi ESE 20.7 mph - - Thunderstorm Thunderstorm
7:00 PM 80.6 °F - 48.2 °F 32% 30.15 in 3.7 mi ESE 20.7 mph - N/A Thunderstorm Light Thunderstorm
7:50 PM 75.2 °F - 51.8 °F 44% 30.18 in 3.7 mi SSE 18.4 mph - N/A   Scattered Clouds
8:00 PM 75.2 °F - 51.8 °F 44% 30.18 in 3.7 mi SE 18.4 mph - N/A   Scattered Clouds
9:00 PM 73.4 °F - 53.6 °F 50% 30.18 in 5.0 mi WNW 9.2 mph - N/A   Scattered Clouds
10:00 PM 71.6 °F - 51.8 °F 50% 30.21 in 5.0 mi Calm Calm - N/A   Partly Cloudy
11:00 PM 68.0 °F - 50.0 °F 52% 30.24 in 5.0 mi Calm Calm - N/A   Partly Cloudy